Weather in Yar-Bazar

Russia / Astrakhan Oblast     45°57′32″N   47°29′44″E
temp.,
°C
wind,
m/s
gust,
m/s
humid.,
%
clouds,
%
prec.,
mm/h
press.,
hPa
HPBL,
m
1 august, sun
sun101:00+25s345898 0.0 101183
04:00+24se226340 0.0 101131
07:00+26se336166 0.0 1012150
10:00+30se344211 0.0 1012928
13:00+32sse453929 0.7 10111018
16:00+34se553253 0.7 10101330
19:00+32sse65330 0.0 1010584
22:00+27s45510 0.0 101193
2 august, mon
mon201:00+26s225526 0.0 101121
04:00+27ese2251100 0.0 101137
07:00+27e33425 0.0 101289
10:00+32ese35265 0.0 1012612
13:00+36s662099 0.0 10111229
16:00+36sse451899 0.0 10101269
19:00+34se5623100 0.0 1010490
22:00+27se455243 0.0 101174
3 august, tue
tue301:00+27sse345795 0.0 101054
04:00+26se225067 0.0 101011
07:00+28wnw11426 0.0 101212
10:00+33ese23241 0.0 1012478
13:00+38sse56150 0.0 10102194
16:00+38sse66140 0.0 10101959
19:00+36sse56180 0.0 1010481
22:00+29s46350 0.0 101065
4 august, wed
wed401:00+28ssw46440 0.0 101072
04:00+26sw22470 0.0 101012
07:00+28s22390 0.0 101147
10:00+34s33220 0.0 1011562
13:00+38sse44160 0.0 10102130
16:00+38sse86166 0.0 10091569
19:00+34sse78239 0.0 1010347
22:00+27s01485 0.0 101211
5 august, thu
thu501:00+27ssw22423 0.0 101111
04:00+27n34370 0.0 101129
07:00+27n475098 0.0 1011165
10:00+31n101140100 0.0 1013920
13:00+29nne6844100 0.0 1013426
16:00+30nnw35416 0.0 1013858
19:00+32nnw34330 0.0 10121811
22:00+28nne474489 0.0 1013100